Wind_Speed
5 3 5 9 13 13 10 6 7 7 9 8 5 4 2 0 2 5 4 5 7 8 10 11 10 8 10 14 16 16 15 17 17 16 16 15 14 13 14 16 17 18 18 16
3 7 8 8 10 6 10 10 7 16 10 2 2 8 1 2 5 6 5 4 7 11 14 16 14 12 12 13 16 20 20 20 20 20 19 17 16 18 19 19 20 20 19 18
3 5 4 5 10 5 9 3 4 7 8 8 1 6 3 7 9 6 5 9 9 13 16 19 19 17 15 16 14 18 22 24 22 22 20 20 20 20 22 22 22 23 21 21
6 5 5 4 6 4 4 5 8 9 10 7 3 1 4 2 2 5 7 6 11 14 15 19 17 18 16 19 18 16 18 22 23 20 20 21 21 21 23 20 20 23 24 26
4 0 1 3 5 5 6 8 9 12 11 9 12 6 9 10 11 15 13 12 13 16 21 23 21 20 21 16 21 21 19 19 21 23 23 23 23 23 23 23 25 25 27 29
7 5 6 7 8 9 11 12 12 11 12 10 10 8 8 13 16 19 20 20 19 18 18 22 24 21 24 23 22 25 24 23 23 22 23 23 24 23 24 24 25 28 30 34
5 6 6 7 9 11 10 13 14 13 13 13 13 14 10 14 18 20 21 21 18 19 16 19 21 26 27 25 28 29 31 28 25 24 24 25 24 26 25 27 31 31 35 38
5 5 8 9 10 10 10 13 17 21 22 22 18 17 15 15 14 18 20 18 14 12 11 15 21 24 26 29 29 29 31 23 31 29 27 24 27 29 30 35 34 35 42 48
2 6 7 8 11 13 14 17 21 27 28 30 28 23 16 18 19 16 16 14 16 18 14 14 12 15 21 33 32 28 21 26 20 27 27 24 24 30 33 42 45 46 45 42
3 2 10 12 15 16 20 23 25 30 33 36 36 38 34 23 19 21 18 21 19 23 18 14 14 12 14 15 15 16 20 25 28 29 32 25 29 31 36 42 39 40 18 14
9 11 14 15 17 19 24 28 29 31 33 38 43 41 38 30 26 21 21 19 20 22 21 18 19 13 12 12 15 14 17 20 24 28 31 32 41 41 42 32 31 22 22 20
12 14 16 19 21 23 25 28 29 32 37 36 39 38 38 37 31 23 27 25 22 23 24 20 19 15 13 14 20 17 18 24 26 31 29 32 31 26 22 28 27 25 26 27
14 15 17 20 22 22 23 25 27 29 31 33 37 37 36 35 33 28 25 29 26 26 26 23 16 15 16 16 19 26 30 30 29 30 33 33 30 29 26 27 23 24 25 20
18 18 19 20 22 22 24 27 28 29 31 32 33 36 27 27 28 31 26 28 31 27 25 27 29 26 23 25 30 31 30 32 34 33 35 35 34 28 26 25 24 24 23 19
20 21 22 22 24 25 25 28 30 32 33 35 35 38 33 28 25 29 27 22 28 28 32 32 31 30 31 33 32 32 34 36 39 38 37 39 35 32 28 27 20 19 18 18
20 23 25 23 28 29 28 30 32 34 35 37 38 36 34 35 30 30 27 24 24 33 36 37 36 37 37 36 37 37 35 34 39 38 35 39 42 30 25 19 16 16 18 18
23 26 28 26 29 31 29 31 31 33 34 37 37 36 36 34 35 30 26 23 25 28 32 35 38 43 39 37 37 41 41 33 34 34 39 41 38 26 21 16 15 16 16 19
24 26 29 30 30 32 31 33 33 34 32 36 36 37 35 30 31 28 25 23 23 24 27 29 35 40 46 34 38 40 41 27 29 27 25 19 15 18 16 15 13 15 19 20
26 28 31 31 32 35 32 36 37 38 34 37 37 36 36 32 31 34 30 24 26 26 28 33 46 32 32 34 33 40 38 33 26 22 21 18 15 14 14 13 15 19 20 20
31 32 34 34 37 39 36 39 40 42 39 37 38 38 35 34 28 33 27 24 25 24 23 20 24 27 29 26 24 20 20 19 22 21 19 17 15 13 13 15 18 19 19 17
34 36 35 37 38 39 38 41 44 45 44 42 40 41 38 33 33 32 34 28 19 22 21 23 23 22 23 19 12 8 9 13 15 17 17 16 13 14 16 17 19 18 17 17
33 36 36 37 39 40 44 45 46 46 44 41 40 39 36 34 33 31 31 32 26 21 20 15 18 20 21 19 16 12 11 13 15 15 15 13 13 15 17 17 18 19 19 18
35 36 37 39 39 42 45 45 47 48 47 43 37 35 31 32 31 30 32 27 18 15 14 14 18 20 19 17 16 16 15 14 14 14 14 14 16 17 18 20 21 20 20 21
35 37 39 42 39 42 45 46 47 48 46 41 28 26 26 26 26 29 21 15 13 14 14 14 17 17 16 15 15 16 17 17 16 14 15 17 18 19 20 23 22 22 22 22
36 41 42 39 38 44 42 45 46 39 35 27 27 24 21 25 24 29 24 17 15 15 14 15 16 21 18 17 17 17 17 18 17 16 17 19 21 22 23 24 24 24 24 24
41 40 39 37 39 41 43 44 38 33 32 28 25 22 21 23 27 25 18 13 15 14 15 17 18 20 18 15 16 16 18 18 18 18 19 21 22 23 24 24 24 24 25 25
Wind_Direction
195 290 341 356 344 336 342 42 277 317 310 350 44 229 265 321 42 5 308 294 297 298 292 269 254 242 229 215 214 222 205 194 199 203 197 200 209 211 219 226 230 232 233 236
64 29 40 29 35 14 38 47 43 20 23 25 66 224 197 350 3 5 5 291 276 292 299 299 279 258 256 245 226 221 226 214 207 209 210 210 211 223 231 236 241 246 244 246
113 85 74 55 49 76 4 33 1 3 15 15 285 12 262 278 312 311 320 321 278 274 286 284 281 266 252 255 250 234 229 231 226 219 218 223 228 230 235 238 242 246 249 250
132 127 85 59 42 28 20 307 317 329 345 335 315 112 125 126 311 299 292 290 302 288 276 285 273 264 252 254 249 246 237 233 237 231 222 219 224 232 238 240 239 240 242 246
169 226 101 31 17 351 331 325 322 327 341 331 304 287 275 274 273 283 279 278 282 284 283 281 277 246 252 252 256 249 243 228 226 228 227 226 227 232 234 239 242 247 247 244
262 269 293 315 328 332 324 310 313 312 305 312 311 298 288 286 284 287 287 289 291 287 276 272 278 251 251 249 248 247 237 227 225 234 241 240 244 249 250 259 262 250 247 245
265 286 307 321 311 320 325 329 326 328 321 321 302 296 289 289 301 296 291 289 291 284 276 263 264 264 252 248 246 239 236 229 222 229 240 247 249 250 252 257 260 260 257 251
336 315 349 335 328 335 347 351 348 341 337 328 318 305 299 285 283 288 287 293 303 295 296 296 271 259 260 249 242 242 255 242 217 231 240 254 268 269 268 267 257 265 259 244
1 286 309 323 335 338 338 351 343 335 333 330 329 321 319 293 270 276 277 280 284 286 302 297 307 283 290 245 239 247 271 274 281 274 263 250 266 275 261 277 259 278 272 246
334 276 331 336 336 341 342 340 331 324 320 320 320 319 326 326 290 272 271 276 277 289 303 294 298 294 283 271 246 255 272 276 271 270 273 278 282 283 261 276 297 276 269 253
346 344 337 330 334 335 336 330 320 314 313 310 313 315 323 315 310 292 280 271 261 277 284 291 302 289 277 272 250 264 273 270 271 264 266 268 267 269 287 296 307 284 289 316
325 325 326 324 329 332 326 317 312 309 309 312 311 319 318 312 308 296 281 278 269 267 272 279 291 293 293 274 249 264 274 278 270 279 282 279 290 295 303 310 315 312 293 300
314 315 315 315 315 317 316 310 309 311 312 315 312 317 317 312 305 296 281 262 260 268 263 274 259 268 263 274 282 288 277 278 280 287 291 292 303 295 308 300 307 300 306 294
301 303 305 307 309 311 312 309 310 307 311 315 321 318 318 307 305 300 286 268 255 252 247 266 274 265 265 277 290 292 278 274 281 278 282 287 296 293 302 294 288 295 294 281
296 298 302 307 307 308 312 313 311 315 319 318 320 321 315 309 310 305 291 263 257 245 250 253 257 258 268 273 275 276 277 272 276 280 281 283 286 293 299 283 279 277 278 282
296 297 299 309 306 309 317 315 312 316 316 316 316 318 309 307 306 314 295 263 249 239 244 252 255 259 264 267 270 268 273 269 275 279 289 286 284 285 282 265 267 278 285 290
295 296 300 309 303 305 314 307 309 310 314 311 312 312 309 308 300 301 298 276 257 252 248 242 244 248 254 274 272 270 266 259 274 283 289 280 277 271 260 268 276 285 294 301
293 294 298 303 303 305 309 308 307 306 310 308 309 307 306 304 294 288 296 279 271 270 265 262 260 251 258 256 276 272 274 273 273 284 288 278 250 242 258 275 283 296 301 304
293 296 298 302 303 306 310 307 308 309 313 305 305 303 301 299 290 286 285 269 262 262 268 276 279 243 274 270 277 280 273 276 255 265 272 266 262 264 274 281 295 301 303 302
298 300 301 304 305 308 310 307 308 309 308 302 304 298 292 289 282 280 278 268 264 259 263 280 261 257 268 277 287 290 261 237 254 263 269 268 268 267 273 281 293 298 297 291
300 300 302 302 302 306 305 305 307 309 308 307 301 292 287 281 276 278 271 263 259 255 259 267 258 261 268 276 274 262 243 252 262 269 267 265 266 274 281 290 291 293 298 292
296 298 299 300 300 303 305 307 308 308 306 304 296 291 288 280 277 279 273 265 269 260 257 262 255 262 259 260 252 254 252 257 256 253 251 253 267 281 283 292 296 296 294 285
296 297 299 299 301 303 305 307 309 307 308 304 301 295 285 268 279 274 289 268 233 228 239 254 261 270 254 245 246 255 253 254 251 248 252 264 278 286 295 295 290 289 289 283
297 296 297 298 305 305 307 309 308 310 307 304 297 293 283 276 271 277 250 222 227 233 247 264 266 253 263 256 246 244 249 246 246 253 264 277 287 295 295 292 291 289 286 282
294 293 298 304 304 303 308 307 310 308 306 298 292 291 278 273 273 278 230 219 237 242 253 260 257 261 260 251 245 251 253 248 250 261 276 286 294 297 294 294 292 292 288 282
288 294 297 302 301 303 307 309 308 305 309 298 283 283 281 281 284 245 221 227 239 252 263 263 262 261 253 253 255 253 250 253 260 270 282 290 294 295 295 289 286 288 288 279
Height
5925 5926 5929 5929 5929 5927 5926 5924 5927 5928 5927 5927 5927 5927 5926 5926 5925 5923 5924 5924 5923 5922 5923 5922 5922 5921 5920 5922 5922 5924 5924 5924 5924 5924 5926 5926 5926 5928 5928 5929 5928 5927 5926 5925
5927 5927 5928 5929 5927 5927 5926 5925 5926 5926 5925 5925 5926 5926 5928 5928 5926 5924 5923 5923 5924 5922 5919 5917 5919 5918 5918 5918 5919 5920 5921 5921 5921 5921 5921 5922 5922 5922 5923 5923 5923 5924 5923 5922
5928 5929 5928 5928 5927 5926 5927 5926 5926 5927 5926 5926 5927 5928 5927 5927 5926 5924 5923 5921 5920 5919 5918 5916 5914 5914 5914 5915 5916 5916 5917 5918 5918 5918 5918 5918 5917 5917 5916 5916 5918 5918 5917 5916
5928 5929 5929 5929 5928 5928 5927 5926 5925 5925 5926 5926 5925 5925 5925 5925 5925 5924 5922 5920 5918 5917 5915 5912 5911 5911 5910 5910 5912 5912 5911 5913 5914 5915 5914 5913 5912 5913 5912 5912 5911 5911 5910 5910
5928 5928 5928 5927 5927 5927 5927 5926 5925 5924 5924 5923 5922 5925 5923 5922 5920 5919 5918 5917 5916 5914 5911 5909 5906 5906 5906 5906 5908 5907 5908 5907 5908 5909 5908 5908 5907 5907 5907 5906 5907 5907 5906 5905
5926 5926 5926 5925 5924 5924 5924 5923 5922 5921 5921 5921 5919 5922 5920 5918 5917 5915 5914 5913 5912 5911 5908 5904 5901 5901 5900 5901 5901 5901 5902 5902 5902 5902 5904 5903 5903 5903 5902 5902 5902 5901 5899 5899
5925 5924 5924 5923 5923 5922 5921 5919 5918 5919 5917 5917 5916 5915 5915 5912 5911 5910 5909 5907 5907 5905 5902 5899 5896 5896 5896 5896 5895 5894 5894 5895 5897 5896 5897 5897 5897 5897 5896 5895 5893 5892 5892 5892
5924 5924 5923 5923 5922 5921 5918 5917 5916 5913 5913 5912 5911 5910 5911 5908 5906 5905 5903 5902 5901 5900 5898 5895 5892 5890 5890 5890 5890 5889 5887 5885 5887 5889 5889 5890 5890 5888 5888 5885 5881 5881 5879 5879
5924 5923 5923 5922 5920 5919 5917 5914 5912 5909 5908 5905 5905 5904 5906 5903 5900 5899 5898 5896 5896 5895 5893 5891 5889 5888 5885 5883 5883 5886 5883 5881 5880 5881 5880 5881 5883 5884 5881 5875 5859 5867 5864 5867
5922 5922 5920 5918 5916 5915 5911 5910 5908 5905 5901 5898 5896 5894 5895 5897 5895 5893 5892 5891 5891 5890 5888 5887 5885 5883 5881 5878 5877 5880 5881 5879 5877 5873 5873 5872 5876 5875 5864 5862 5852 5864 5863 5859
5917 5917 5917 5914 5913 5910 5907 5904 5903 5901 5898 5893 5889 5889 5887 5887 5886 5886 5884 5883 5882 5883 5882 5881 5880 5878 5877 5876 5876 5877 5876 5876 5873 5870 5866 5866 5867 5863 5856 5859 5860 5857 5858 5858
5915 5913 5912 5910 5907 5904 5902 5900 5898 5895 5892 5888 5883 5881 5879 5876 5876 5875 5875 5875 5875 5875 5876 5875 5874 5873 5872 5872 5872 5872 5869 5868 5865 5860 5860 5862 5858 5855 5855 5856 5854 5854 5856 5856
5912 5910 5909 5906 5906 5903 5900 5898 5895 5891 5887 5884 5878 5875 5871 5867 5865 5865 5865 5865 5866 5867 5868 5866 5866 5867 5866 5866 5866 5866 5863 5860 5860 5858 5857 5852 5852 5851 5850 5851 5850 5850 5848 5846
5908 5907 5905 5904 5902 5900 5896 5892 5889 5886 5883 5878 5874 5868 5866 5861 5858 5855 5854 5854 5855 5857 5858 5858 5858 5858 5859 5859 5858 5857 5854 5851 5852 5851 5849 5848 5846 5845 5846 5845 5844 5843 5842 5842
5904 5902 5900 5899 5896 5894 5893 5888 5883 5879 5876 5870 5867 5861 5856 5854 5851 5848 5844 5844 5846 5848 5847 5847 5847 5848 5849 5850 5850 5850 5849 5845 5841 5840 5842 5842 5841 5840 5838 5837 5836 5837 5836 5836
5898 5896 5893 5894 5888 5886 5885 5880 5875 5872 5868 5862 5858 5855 5849 5845 5843 5840 5837 5836 5836 5836 5836 5837 5838 5838 5838 5839 5840 5840 5839 5839 5837 5835 5832 5830 5830 5830 5830 5829 5828 5828 5829 5829
5892 5889 5887 5887 5883 5879 5879 5873 5869 5865 5861 5856 5851 5847 5842 5839 5835 5833 5831 5829 5828 5827 5827 5827 5828 5828 5829 5830 5829 5828 5828 5828 5827 5826 5823 5820 5819 5821 5822 5821 5821 5821 5821 5820
5886 5883 5881 5879 5876 5873 5871 5866 5862 5857 5855 5848 5843 5838 5834 5831 5826 5825 5824 5822 5821 5820 5820 5819 5819 5818 5816 5817 5818 5817 5814 5816 5819 5818 5815 5811 5810 5813 5814 5815 5814 5813 5813 5812
5879 5876 5873 5871 5867 5864 5863 5857 5852 5847 5847 5838 5834 5829 5825 5821 5818 5815 5814 5813 5812 5812 5811 5809 5803 5807 5810 5810 5808 5804 5803 5805 5810 5811 5810 5809 5807 5807 5807 5807 5807 5808 5807 5806
5870 5868 5865 5862 5857 5853 5851 5845 5841 5837 5835 5829 5824 5819 5814 5811 5808 5803 5803 5802 5801 5802 5801 5800 5800 5803 5804 5802 5799 5793 5795 5799 5801 5802 5804 5804 5803 5802 5802 5803 5803 5802 5801 5801
5861 5858 5856 5852 5848 5845 5840 5836 5831 5827 5825 5818 5814 5808 5804 5801 5798 5796 5792 5793 5792 5793 5794 5794 5796 5797 5797 5795 5795 5793 5793 5794 5795 5796 5797 5798 5798 5799 5798 5798 5798 5797 5796 5796
5855 5850 5847 5843 5839 5836 5830 5826 5822 5818 5812 5808 5802 5797 5794 5790 5789 5786 5784 5784 5785 5784 5787 5786 5790 5791 5791 5790 5790 5789 5790 5791 5791 5792 5793 5794 5794 5794 5794 5793 5792 5792 5791 5792
5846 5842 5839 5835 5832 5826 5821 5817 5811 5804 5800 5794 5790 5786 5783 5782 5780 5778 5776 5774 5778 5780 5781 5782 5785 5785 5784 5784 5785 5786 5786 5786 5788 5789 5789 5790 5790 5789 5788 5788 5788 5787 5786 5786
5836 5831 5828 5824 5824 5816 5811 5806 5800 5793 5787 5783 5779 5776 5774 5774 5773 5771 5770 5770 5772 5775 5777 5779 5779 5780 5780 5780 5781 5782 5782 5783 5784 5784 5785 5785 5785 5785 5783 5783 5782 5781 5780 5780
5825 5821 5819 5817 5813 5806 5803 5796 5790 5783 5778 5775 5771 5769 5768 5766 5766 5763 5765 5767 5770 5772 5773 5774 5775 5776 5776 5776 5778 5778 5778 5779 5779 5780 5780 5780 5779 5778 5777 5776 5775 5774 5774 5774
5811 5812 5810 5807 5802 5797 5793 5787 5780 5776 5772 5767 5764 5764 5763 5761 5760 5759 5760 5763 5767 5769 5770 5770 5770 5772 5772 5772 5773 5774 5773 5774 5775 5775 5775 5774 5773 5772 5771 5770 5769 5769 5768 5767